,,PressureMeas_1m,,PRMeasQMR101_1,,RHStat155_1m_1,,SRMeasQMS101R_1m,,TAStat155_1m_1,,GenWind_1,,GenWind_1,
2018-05-18, 00:00:06,VALID,915.818,VALID,0.0,VALID,86.012,VALID,-0.025,VALID,22.702,VALID,67.0,VALID,0.0,
2018-05-18, 00:01:06,VALID,915.799,VALID,0.0,VALID,86.014,VALID,-0.016,VALID,22.702,VALID,62.0,VALID,0.0,
2018-05-18, 00:02:06,VALID,915.775,VALID,0.0,VALID,85.938,VALID,-0.012,VALID,22.724,VALID,75.0,VALID,0.0,
2018-05-18, 00:03:06,VALID,915.77,VALID,0.0,VALID,85.702,VALID,-0.006,VALID,22.762,VALID,82.0,VALID,0.0,
2018-05-18, 00:04:06,VALID,915.761,VALID,0.0,VALID,85.412,VALID,-0.028,VALID,22.794,VALID,83.0,VALID,0.0,
2018-05-18, 00:05:06,VALID,915.749,VALID,0.0,VALID,85.331,VALID,-0.019,VALID,22.804,VALID,82.0,VALID,0.0,
2018-05-18, 00:06:06,VALID,915.769,VALID,0.0,VALID,85.364,VALID,-0.028,VALID,22.755,VALID,71.0,VALID,0.0,
2018-05-18, 00:07:06,VALID,915.766,VALID,0.0,VALID,85.901,VALID,-0.028,VALID,22.681,VALID,70.0,VALID,0.0,
2018-05-18, 00:08:06,VALID,915.764,VALID,0.0,VALID,86.04,VALID,-0.044,VALID,22.668,VALID,60.0,VALID,0.0,
2018-05-18, 00:09:06,VALID,915.758,VALID,0.0,VALID,86.253,VALID,-0.037,VALID,22.634,VALID,58.0,VALID,0.0,
2018-05-18, 00:10:06,VALID,915.757,VALID,0.0,VALID,86.285,VALID,-0.031,VALID,22.625,VALID,59.0,VALID,0.0,
2018-05-18, 00:11:06,VALID,915.771,VALID,0.0,VALID,85.894,VALID,-0.038,VALID,22.698,VALID,56.0,VALID,0.0,
2018-05-18, 00:12:06,VALID,915.763,VALID,0.0,VALID,85.712,VALID,-0.037,VALID,22.728,VALID,61.0,VALID,0.0,
2018-05-18, 00:13:06,VALID,915.762,VALID,0.0,VALID,85.94,VALID,-0.036,VALID,22.692,VALID,63.0,VALID,0.0,
2018-05-18, 00:14:06,VALID,915.768,VALID,0.0,VALID,86.145,VALID,-0.045,VALID,22.656,VALID,56.0,VALID,0.0,
2018-05-18, 00:15:06,VALID,915.762,VALID,0.0,VALID,86.145,VALID,-0.039,VALID,22.655,VALID,60.0,VALID,0.0,
2018-05-18, 00:16:06,VALID,915.768,VALID,0.0,VALID,85.962,VALID,-0.033,VALID,22.692,VALID,58.0,VALID,0.0,
2018-05-18, 00:17:06,VALID,915.754,VALID,0.0,VALID,86.112,VALID,-0.019,VALID,22.663,VALID,58.0,VALID,0.0,
2018-05-18, 00:18:06,VALID,915.767,VALID,0.0,VALID,86.29,VALID,-0.007,VALID,22.617,VALID,61.0,VALID,0.0,
2018-05-18, 00:19:06,VALID,915.76,VALID,0.0,VALID,86.858,VALID,0.027,VALID,22.511,VALID,65.0,VALID,0.0,
2018-05-18, 00:20:06,VALID,915.745,VALID,0.0,VALID,86.782,VALID,0.019,VALID,22.525,VALID,81.0,VALID,0.0,
2018-05-18, 00:21:06,VALID,915.733,VALID,0.0,VALID,86.763,VALID,0.017,VALID,22.526,VALID,77.0,VALID,0.0,
2018-05-18, 00:22:06,VALID,915.72,VALID,0.0,VALID,86.999,VALID,0.017,VALID,22.482,VALID,68.0,VALID,0.0,
2018-05-18, 00:23:06,VALID,915.717,VALID,0.0,VALID,87.251,VALID,0.033,VALID,22.428,VALID,66.0,VALID,0.0,
2018-05-18, 00:24:06,VALID,915.727,VALID,0.0,VALID,87.434,VALID,0.032,VALID,22.386,VALID,65.0,VALID,0.0,
2018-05-18, 00:25:06,VALID,915.735,VALID,0.0,VALID,87.454,VALID,0.047,VALID,22.369,VALID,65.0,VALID,0.0,
2018-05-18, 00:26:06,VALID,915.731,VALID,0.0,VALID,87.581,VALID,0.037,VALID,22.35,VALID,65.0,VALID,0.0,
2018-05-18, 00:27:06,VALID,915.727,VALID,0.0,VALID,87.361,VALID,0.028,VALID,22.264,VALID,69.0,VALID,0.0,
2018-05-18, 00:28:06,VALID,915.734,VALID,0.0,VALID,88.157,VALID,0.046,VALID,22.13,VALID,127.0,VALID,0.0,
2018-05-18, 00:29:06,VALID,915.732,VALID,0.0,VALID,88.87,VALID,0.037,VALID,22.035,VALID,132.0,VALID,0.0,
2018-05-18, 00:30:06,VALID,915.728,VALID,0.0,VALID,89.104,VALID,0.023,VALID,21.977,VALID,132.0,VALID,0.0,
2018-05-18, 00:31:06,VALID,915.742,VALID,0.0,VALID,89.183,VALID,0.029,VALID,21.926,VALID,132.0,VALID,0.0,
2018-05-18, 00:32:06,VALID,915.74,VALID,0.0,VALID,89.323,VALID,0.036,VALID,21.874,VALID,132.0,VALID,0.0,
2018-05-18, 00:33:06,VALID,915.735,VALID,0.0,VALID,89.878,VALID,0.015,VALID,21.772,VALID,103.0,VALID,0.0,
2018-05-18, 00:34:06,VALID,915.719,VALID,0.0,VALID,90.265,VALID,-0.029,VALID,21.661,VALID,100.0,VALID,0.0,
2018-05-18, 00:35:06,VALID,915.701,VALID,0.0,VALID,91.071,VALID,-0.017,VALID,21.628,VALID,100.0,VALID,0.0,
2018-05-18, 00:36:06,VALID,915.684,VALID,0.0,VALID,91.23,VALID,-0.02,VALID,21.605,VALID,100.0,VALID,0.0,
2018-05-18, 00:37:06,VALID,915.667,VALID,0.0,VALID,91.226,VALID,-0.023,VALID,21.582,VALID,100.0,VALID,0.0,
2018-05-18, 00:38:06,VALID,915.648,VALID,0.0,VALID,91.345,VALID,-0.015,VALID,21.588,VALID,100.0,VALID,0.0,
2018-05-18, 00:39:06,VALID,915.625,VALID,0.0,VALID,91.122,VALID,-0.018,VALID,21.624,VALID,100.0,VALID,0.0,
2018-05-18, 00:40:06,VALID,915.604,VALID,0.0,VALID,90.921,VALID,-0.019,VALID,21.671,VALID,100.0,VALID,0.0,
2018-05-18, 00:41:06,VALID,915.564,VALID,0.0,VALID,91.24,VALID,-0.008,VALID,21.699,VALID,91.0,VALID,0.0,
2018-05-18, 00:42:06,VALID,915.526,VALID,0.0,VALID,91.333,VALID,-0.005,VALID,21.666,VALID,318.0,VALID,0.0,
2018-05-18, 00:43:06,VALID,915.515,VALID,0.0,VALID,92.274,VALID,-0.018,VALID,21.597,VALID,231.0,VALID,0.0,
2018-05-18, 00:44:06,VALID,915.49,VALID,0.0,VALID,92.961,VALID,-0.005,VALID,21.545,VALID,199.0,VALID,0.0,
2018-05-18, 00:45:06,VALID,915.462,VALID,0.0,VALID,93.521,VALID,-0.012,VALID,21.48,VALID,199.0,VALID,0.0,
2018-05-18, 00:46:06,VALID,915.451,VALID,0.0,VALID,93.749,VALID,-0.015,VALID,21.447,VALID,199.0,VALID,0.0,
2018-05-18, 00:47:06,VALID,915.422,VALID,0.0,VALID,93.25,VALID,-0.017,VALID,21.451,VALID,130.0,VALID,0.0,
2018-05-18, 00:48:06,VALID,915.413,VALID,0.0,VALID,91.378,VALID,-0.002,VALID,21.628,VALID,78.0,VALID,0.0,
2018-05-18, 00:49:06,VALID,915.405,VALID,0.0,VALID,91.039,VALID,0.005,VALID,21.662,VALID,53.0,VALID,0.0,
2018-05-18, 00:50:06,VALID,915.396,VALID,0.0,VALID,91.64,VALID,-0.002,VALID,21.585,VALID,54.0,VALID,0.0,
2018-05-18, 00:51:06,VALID,915.376,VALID,0.0,VALID,91.714,VALID,0.029,VALID,21.534,VALID,54.0,VALID,0.0,
2018-05-18, 00:52:06,VALID,915.368,VALID,0.0,VALID,91.856,VALID,0.011,VALID,21.507,VALID,54.0,VALID,0.0,
2018-05-18, 00:53:06,VALID,915.374,VALID,0.0,VALID,92.073,VALID,0.007,VALID,21.514,VALID,54.0,VALID,0.0,
2018-05-18, 00:54:06,VALID,915.381,VALID,0.0,VALID,91.973,VALID,0.014,VALID,21.517,VALID,54.0,VALID,0.0,
2018-05-18, 00:55:06,VALID,915.389,VALID,0.0,VALID,91.957,VALID,0.005,VALID,21.503,VALID,180.0,VALID,0.0,
2018-05-18, 00:56:06,VALID,915.392,VALID,0.0,VALID,92.186,VALID,0.015,VALID,21.547,VALID,205.0,VALID,0.0,
2018-05-18, 00:57:06,VALID,915.393,VALID,0.0,VALID,92.468,VALID,0.006,VALID,21.585,VALID,202.0,VALID,0.0,
2018-05-18, 00:58:06,VALID,915.394,VALID,0.0,VALID,92.586,VALID,-0.004,VALID,21.598,VALID,245.0,VALID,0.0,
2018-05-18, 00:59:06,VALID,915.405,VALID,0.0,VALID,92.828,VALID,0.0,VALID,21.585,VALID,259.0,VALID,0.0,
2018-05-18, 01:00:06,VALID,915.407,VALID,0.0,VALID,93.307,VALID,0.003,VALID,21.541,VALID,249.0,VALID,0.0,
2018-05-18, 01:01:06,VALID,915.426,VALID,0.0,VALID,93.865,VALID,0.009,VALID,21.473,VALID,243.0,VALID,0.0,
2018-05-18, 01:02:06,VALID,915.434,VALID,0.0,VALID,94.361,VALID,-0.003,VALID,21.413,VALID,265.0,VALID,0.0,
2018-05-18, 01:03:06,VALID,915.427,VALID,0.0,VALID,94.73,VALID,-0.0,VALID,21.38,VALID,246.0,VALID,0.0,
2018-05-18, 01:04:06,VALID,915.407,VALID,0.0,VALID,94.863,VALID,0.015,VALID,21.35,VALID,244.0,VALID,0.0,
2018-05-18, 01:05:06,VALID,915.401,VALID,0.0,VALID,95.002,VALID,0.008,VALID,21.309,VALID,243.0,VALID,0.0,
2018-05-18, 01:06:06,VALID,915.397,VALID,0.0,VALID,95.246,VALID,0.013,VALID,21.275,VALID,250.0,VALID,0.0,
2018-05-18, 01:07:06,VALID,915.399,VALID,0.0,VALID,95.452,VALID,0.02,VALID,21.269,VALID,243.0,VALID,0.0,
2018-05-18, 01:08:06,VALID,915.379,VALID,0.0,VALID,95.65,VALID,0.012,VALID,21.247,VALID,234.0,VALID,0.0,
2018-05-18, 01:09:06,VALID,915.385,VALID,0.0,VALID,95.822,VALID,0.009,VALID,21.214,VALID,240.0,VALID,0.0,
2018-05-18, 01:10:06,VALID,915.37,VALID,0.0,VALID,95.936,VALID,0.038,VALID,21.179,VALID,269.0,VALID,0.0,
2018-05-18, 01:11:06,VALID,915.332,VALID,0.0,VALID,96.043,VALID,0.014,VALID,21.162,VALID,267.0,VALID,0.0,
2018-05-18, 01:12:06,VALID,915.309,VALID,0.0,VALID,96.186,VALID,0.015,VALID,21.155,VALID,270.0,VALID,0.0,
2018-05-18, 01:13:06,VALID,915.306,VALID,0.0,VALID,96.232,VALID,0.025,VALID,21.14,VALID,277.0,VALID,0.0,
2018-05-18, 01:14:06,VALID,915.29,VALID,0.0,VALID,96.325,VALID,0.014,VALID,21.122,VALID,287.0,VALID,0.0,
2018-05-18, 01:15:06,VALID,915.289,VALID,0.0,VALID,96.237,VALID,0.014,VALID,21.1,VALID,279.0,VALID,0.0,
2018-05-18, 01:16:06,VALID,915.266,VALID,0.0,VALID,96.284,VALID,0.023,VALID,21.099,VALID,228.0,VALID,0.0,
2018-05-18, 01:17:06,VALID,915.241,VALID,0.0,VALID,96.425,VALID,0.021,VALID,21.079,VALID,220.0,VALID,0.0,
2018-05-18, 01:18:06,VALID,915.222,VALID,0.0,VALID,96.639,VALID,-0.003,VALID,21.064,VALID,230.0,VALID,0.0,
2018-05-18, 01:19:06,VALID,915.211,VALID,0.0,VALID,96.822,VALID,0.004,VALID,21.066,VALID,230.0,VALID,0.0,
2018-05-18, 01:20:06,VALID,915.214,VALID,0.0,VALID,96.78,VALID,-0.008,VALID,21.034,VALID,211.0,VALID,0.0,
2018-05-18, 01:21:06,VALID,915.208,VALID,0.0,VALID,96.81,VALID,0.007,VALID,21.0,VALID,187.0,VALID,0.0,
2018-05-18, 01:22:06,VALID,915.206,VALID,0.0,VALID,97.009,VALID,0.002,VALID,20.998,VALID,187.0,VALID,0.0,
2018-05-18, 01:23:06,VALID,915.224,VALID,0.0,VALID,97.159,VALID,-0.001,VALID,20.997,VALID,187.0,VALID,0.0,
2018-05-18, 01:24:06,VALID,915.237,VALID,0.0,VALID,97.192,VALID,-0.005,VALID,21.002,VALID,187.0,VALID,0.0,
2018-05-18, 01:25:06,VALID,915.248,VALID,0.0,VALID,97.133,VALID,0.004,VALID,20.991,VALID,187.0,VALID,0.0,
2018-05-18, 01:26:06,VALID,915.262,VALID,0.0,VALID,97.048,VALID,-0.003,VALID,20.987,VALID,237.0,VALID,0.0,
2018-05-18, 01:27:06,VALID,915.289,VALID,0.0,VALID,96.931,VALID,-0.008,VALID,20.974,VALID,250.0,VALID,0.0,
2018-05-18, 01:28:06,VALID,915.302,VALID,0.0,VALID,96.659,VALID,-0.001,VALID,20.933,VALID,304.0,VALID,0.0,
2018-05-18, 01:29:06,VALID,915.309,VALID,0.0,VALID,96.382,VALID,-0.003,VALID,20.867,VALID,347.0,VALID,0.0,
2018-05-18, 01:30:06,VALID,915.316,VALID,0.0,VALID,96.606,VALID,0.014,VALID,20.833,VALID,358.0,VALID,0.0,
2018-05-18, 01:31:06,VALID,915.328,VALID,0.0,VALID,97.086,VALID,0.008,VALID,20.842,VALID,348.0,VALID,0.0,
2018-05-18, 01:32:06,VALID,915.301,VALID,0.0,VALID,97.201,VALID,-0.002,VALID,20.809,VALID,333.0,VALID,0.0,
2018-05-18, 01:33:06,VALID,915.292,VALID,0.0,VALID,97.312,VALID,0.011,VALID,20.806,VALID,322.0,VALID,0.0,
2018-05-18, 01:34:06,VALID,915.278,VALID,0.0,VALID,97.396,VALID,-0.01,VALID,20.799,VALID,354.0,VALID,0.0,
2018-05-18, 01:35:06,VALID,915.268,VALID,0.0,VALID,97.472,VALID,-0.018,VALID,20.79,VALID,355.0,VALID,0.0,
2018-05-18, 01:36:07,VALID,915.274,VALID,0.0,VALID,97.545,VALID,-0.021,VALID,20.791,VALID,355.0,VALID,0.0,
2018-05-18, 01:37:07,VALID,915.263,VALID,0.0,VALID,97.594,VALID,-0.025,VALID,20.806,VALID,355.0,VALID,0.0,
2018-05-18, 01:38:07,VALID,915.247,VALID,0.0,VALID,97.649,VALID,-0.017,VALID,20.814,VALID,355.0,VALID,0.0,
2018-05-18, 01:39:07,VALID,915.218,VALID,0.0,VALID,97.738,VALID,-0.018,VALID,20.833,VALID,355.0,VALID,0.0,
2018-05-18, 01:40:07,VALID,915.199,VALID,0.0,VALID,97.864,VALID,-0.021,VALID,20.885,VALID,355.0,VALID,0.0,
2018-05-18, 01:41:07,VALID,915.191,VALID,0.0,VALID,97.732,VALID,-0.01,VALID,20.86,VALID,355.0,VALID,0.0,
2018-05-18, 01:42:07,VALID,915.188,VALID,0.0,VALID,97.769,VALID,-0.016,VALID,20.869,VALID,355.0,VALID,0.0,
2018-05-18, 01:43:07,VALID,915.184,VALID,0.0,VALID,97.922,VALID,-0.013,VALID,20.921,VALID,355.0,VALID,0.0,
2018-05-18, 01:44:07,VALID,915.203,VALID,0.0,VALID,98.005,VALID,-0.006,VALID,20.962,VALID,355.0,VALID,0.0,
2018-05-18, 01:45:07,VALID,915.21,VALID,0.0,VALID,98.065,VALID,-0.014,VALID,20.986,VALID,355.0,VALID,0.0,
2018-05-18, 01:46:07,VALID,915.227,VALID,0.0,VALID,98.122,VALID,0.0,VALID,21.019,VALID,355.0,VALID,0.0,
2018-05-18, 01:47:07,VALID,915.225,VALID,0.0,VALID,98.15,VALID,-0.017,VALID,21.045,VALID,355.0,VALID,0.0,
2018-05-18, 01:48:07,VALID,915.199,VALID,0.0,VALID,98.219,VALID,0.008,VALID,21.075,VALID,353.0,VALID,0.0,
2018-05-18, 01:49:07,VALID,915.174,VALID,0.0,VALID,98.253,VALID,0.005,VALID,21.087,VALID,343.0,VALID,0.0,
2018-05-18, 01:50:07,VALID,915.157,VALID,0.0,VALID,98.176,VALID,0.022,VALID,21.044,VALID,343.0,VALID,0.0,
2018-05-18, 01:51:07,VALID,915.148,VALID,0.0,VALID,98.194,VALID,0.01,VALID,21.035,VALID,343.0,VALID,0.0,
2018-05-18, 01:52:07,VALID,915.134,VALID,0.0,VALID,98.195,VALID,0.015,VALID,21.023,VALID,343.0,VALID,0.0,
2018-05-18, 01:53:07,VALID,915.119,VALID,0.0,VALID,98.261,VALID,0.001,VALID,21.054,VALID,340.0,VALID,0.0,
2018-05-18, 01:54:07,VALID,915.095,VALID,0.0,VALID,98.31,VALID,-0.01,VALID,21.086,VALID,238.0,VALID,0.0,
2018-05-18, 01:55:07,VALID,915.089,VALID,0.0,VALID,98.319,VALID,0.007,VALID,21.083,VALID,210.0,VALID,0.0,
2018-05-18, 01:56:07,VALID,915.07,VALID,0.0,VALID,98.338,VALID,-0.001,VALID,21.069,VALID,194.0,VALID,0.0,
2018-05-18, 01:57:07,VALID,915.06,VALID,0.0,VALID,98.276,VALID,-0.007,VALID,21.029,VALID,215.0,VALID,0.0,
2018-05-18, 01:58:07,VALID,915.05,VALID,0.0,VALID,98.405,VALID,0.007,VALID,21.093,VALID,233.0,VALID,0.0,
2018-05-18, 01:59:07,VALID,915.055,VALID,0.0,VALID,98.438,VALID,0.003,VALID,21.12,VALID,233.0,VALID,0.0,
2018-05-18, 02:00:07,VALID,915.055,VALID,0.0,VALID,98.501,VALID,0.005,VALID,21.175,VALID,233.0,VALID,0.0,
2018-05-18, 02:01:07,VALID,915.056,VALID,0.0,VALID,98.524,VALID,-0.005,VALID,21.21,VALID,233.0,VALID,0.0,
2018-05-18, 02:02:07,VALID,915.042,VALID,0.0,VALID,98.544,VALID,-0.005,VALID,21.217,VALID,233.0,VALID,0.0,
2018-05-18, 02:03:07,VALID,915.035,VALID,0.0,VALID,98.566,VALID,0.008,VALID,21.215,VALID,233.0,VALID,0.0,
2018-05-18, 02:04:07,VALID,915.02,VALID,0.0,VALID,98.523,VALID,0.001,VALID,21.208,VALID,233.0,VALID,0.0,
2018-05-18, 02:05:07,VALID,914.992,VALID,0.0,VALID,98.514,VALID,0.009,VALID,21.184,VALID,233.0,VALID,0.0,
2018-05-18, 02:06:07,VALID,914.962,VALID,0.0,VALID,98.558,VALID,0.021,VALID,21.208,VALID,233.0,VALID,0.0,
2018-05-18, 02:07:07,VALID,914.945,VALID,0.0,VALID,98.572,VALID,0.005,VALID,21.212,VALID,233.0,VALID,0.0,
2018-05-18, 02:08:07,VALID,914.939,VALID,0.0,VALID,98.524,VALID,-0.006,VALID,21.169,VALID,216.0,VALID,0.0,
2018-05-18, 02:09:07,VALID,914.938,VALID,0.0,VALID,98.526,VALID,0.004,VALID,21.144,VALID,173.0,VALID,0.0,
2018-05-18, 02:10:07,VALID,914.952,VALID,0.0,VALID,98.541,VALID,0.003,VALID,21.131,VALID,161.0,VALID,0.0,
2018-05-18, 02:11:07,VALID,914.966,VALID,0.0,VALID,98.555,VALID,-0.008,VALID,21.127,VALID,161.0,VALID,0.0,
2018-05-18, 02:12:07,VALID,915.0,VALID,0.0,VALID,98.572,VALID,-0.007,VALID,21.145,VALID,154.0,VALID,0.0,
2018-05-18, 02:13:07,VALID,914.986,VALID,0.0,VALID,98.531,VALID,-0.007,VALID,21.096,VALID,97.0,VALID,0.0,
2018-05-18, 02:14:07,VALID,914.963,VALID,0.0,VALID,98.484,VALID,-0.007,VALID,21.017,VALID,95.0,VALID,0.0,
2018-05-18, 02:15:07,VALID,914.921,VALID,0.0,VALID,98.541,VALID,-0.011,VALID,21.024,VALID,95.0,VALID,0.0,
2018-05-18, 02:16:07,VALID,914.914,VALID,0.0,VALID,98.601,VALID,-0.008,VALID,21.075,VALID,93.0,VALID,0.0,
2018-05-18, 02:17:07,VALID,914.889,VALID,0.0,VALID,98.596,VALID,-0.016,VALID,21.088,VALID,93.0,VALID,0.0,
2018-05-18, 02:18:07,VALID,914.88,VALID,0.0,VALID,98.607,VALID,-0.006,VALID,21.101,VALID,93.0,VALID,0.0,
2018-05-18, 02:19:07,VALID,914.852,VALID,0.0,VALID,98.632,VALID,-0.004,VALID,21.119,VALID,92.0,VALID,0.0,
2018-05-18, 02:20:07,VALID,914.838,VALID,0.0,VALID,98.604,VALID,-0.012,VALID,21.089,VALID,49.0,VALID,0.0,
2018-05-18, 02:21:07,VALID,914.821,VALID,0.0,VALID,98.575,VALID,0.002,VALID,21.053,VALID,16.0,VALID,0.0,
2018-05-18, 02:22:07,VALID,914.809,VALID,0.0,VALID,98.616,VALID,0.005,VALID,21.062,VALID,353.0,VALID,0.0,
2018-05-18, 02:23:07,VALID,914.811,VALID,0.0,VALID,98.611,VALID,0.011,VALID,21.052,VALID,346.0,VALID,0.0,
2018-05-18, 02:24:07,VALID,914.795,VALID,0.0,VALID,98.637,VALID,0.015,VALID,21.066,VALID,347.0,VALID,0.0,
2018-05-18, 02:25:07,VALID,914.819,VALID,0.0,VALID,98.66,VALID,0.005,VALID,21.066,VALID,335.0,VALID,0.0,
2018-05-18, 02:26:07,VALID,914.823,VALID,0.0,VALID,98.664,VALID,0.009,VALID,21.079,VALID,334.0,VALID,0.0,
2018-05-18, 02:27:07,VALID,914.83,VALID,0.0,VALID,98.721,VALID,-0.002,VALID,21.109,VALID,335.0,VALID,0.0,
2018-05-18, 02:28:07,VALID,914.85,VALID,0.0,VALID,98.741,VALID,0.004,VALID,21.149,VALID,343.0,VALID,0.0,
2018-05-18, 02:29:07,VALID,914.844,VALID,0.0,VALID,98.736,VALID,0.001,VALID,21.149,VALID,336.0,VALID,0.0,
2018-05-18, 02:30:07,VALID,914.841,VALID,0.0,VALID,98.719,VALID,0.011,VALID,21.128,VALID,333.0,VALID,0.0,
2018-05-18, 02:31:07,VALID,914.84,VALID,0.0,VALID,98.741,VALID,0.009,VALID,21.149,VALID,338.0,VALID,0.0,
2018-05-18, 02:32:07,VALID,914.836,VALID,0.0,VALID,98.745,VALID,0.016,VALID,21.121,VALID,354.0,VALID,0.0,
2018-05-18, 02:33:07,VALID,914.838,VALID,0.0,VALID,98.708,VALID,0.003,VALID,21.073,VALID,355.0,VALID,0.0,
2018-05-18, 02:34:07,VALID,914.841,VALID,0.0,VALID,98.725,VALID,-0.009,VALID,21.043,VALID,354.0,VALID,0.0,
2018-05-18, 02:35:07,VALID,914.835,VALID,0.0,VALID,98.692,VALID,-0.011,VALID,21.01,VALID,349.0,VALID,0.0,
2018-05-18, 02:36:07,VALID,914.841,VALID,0.0,VALID,98.746,VALID,-0.015,VALID,21.02,VALID,334.0,VALID,0.0,
2018-05-18, 02:37:07,VALID,914.836,VALID,0.0,VALID,98.779,VALID,-0.016,VALID,21.043,VALID,351.0,VALID,0.0,
2018-05-18, 02:38:07,VALID,914.823,VALID,0.0,VALID,98.778,VALID,-0.016,VALID,21.039,VALID,324.0,VALID,0.0,
2018-05-18, 02:39:07,VALID,914.82,VALID,0.0,VALID,98.801,VALID,-0.024,VALID,21.076,VALID,335.0,VALID,0.0,
2018-05-18, 02:40:07,VALID,914.816,VALID,0.0,VALID,98.81,VALID,-0.027,VALID,21.084,VALID,351.0,VALID,0.0,
2018-05-18, 02:41:07,VALID,914.812,VALID,0.0,VALID,98.793,VALID,-0.04,VALID,21.065,VALID,23.0,VALID,0.0,
2018-05-18, 02:42:07,VALID,914.806,VALID,0.0,VALID,98.778,VALID,-0.019,VALID,21.041,VALID,31.0,VALID,0.0,
2018-05-18, 02:43:07,VALID,914.783,VALID,0.0,VALID,98.774,VALID,-0.008,VALID,21.02,VALID,50.0,VALID,0.0,
2018-05-18, 02:44:07,VALID,914.752,VALID,0.0,VALID,98.799,VALID,-0.014,VALID,21.022,VALID,65.0,VALID,0.0,
2018-05-18, 02:45:07,VALID,914.727,VALID,0.0,VALID,98.802,VALID,-0.021,VALID,21.023,VALID,63.0,VALID,0.0,
2018-05-18, 02:46:07,VALID,914.704,VALID,0.0,VALID,98.808,VALID,-0.021,VALID,21.023,VALID,63.0,VALID,0.0,
2018-05-18, 02:47:07,VALID,914.685,VALID,0.0,VALID,98.843,VALID,-0.027,VALID,21.048,VALID,62.0,VALID,0.0,
2018-05-18, 02:48:07,VALID,914.674,VALID,0.0,VALID,98.847,VALID,-0.012,VALID,21.06,VALID,62.0,VALID,0.0,
2018-05-18, 02:49:07,VALID,914.654,VALID,0.0,VALID,98.854,VALID,-0.021,VALID,21.081,VALID,61.0,VALID,0.0,
2018-05-18, 02:50:07,VALID,914.639,VALID,0.0,VALID,98.857,VALID,-0.007,VALID,21.121,VALID,199.0,VALID,0.0,
2018-05-18, 02:51:07,VALID,914.628,VALID,0.0,VALID,98.885,VALID,-0.002,VALID,21.132,VALID,246.0,VALID,0.0,
2018-05-18, 02:52:07,VALID,914.612,VALID,0.0,VALID,98.862,VALID,-0.02,VALID,21.122,VALID,296.0,VALID,0.0,
2018-05-18, 02:53:07,VALID,914.585,VALID,0.0,VALID,98.855,VALID,0.008,VALID,21.111,VALID,298.0,VALID,0.0,
2018-05-18, 02:54:07,VALID,914.582,VALID,0.0,VALID,98.821,VALID,0.016,VALID,21.084,VALID,309.0,VALID,0.0,
2018-05-18, 02:55:07,VALID,914.545,VALID,0.0,VALID,98.823,VALID,0.008,VALID,21.063,VALID,348.0,VALID,0.0,
2018-05-18, 02:56:07,VALID,914.541,VALID,0.0,VALID,98.878,VALID,0.011,VALID,21.084,VALID,315.0,VALID,0.0,
2018-05-18, 02:57:07,VALID,914.52,VALID,0.0,VALID,98.877,VALID,-0.001,VALID,21.093,VALID,302.0,VALID,0.0,
2018-05-18, 02:58:07,VALID,914.512,VALID,0.0,VALID,98.871,VALID,0.002,VALID,21.089,VALID,282.0,VALID,0.0,
2018-05-18, 02:59:07,VALID,914.511,VALID,0.0,VALID,98.882,VALID,-0.01,VALID,21.095,VALID,256.0,VALID,0.0,
2018-05-18, 03:00:07,VALID,914.523,VALID,0.0,VALID,98.905,VALID,-0.006,VALID,21.116,VALID,252.0,VALID,0.0,
2018-05-18, 03:01:07,VALID,914.53,VALID,0.0,VALID,98.899,VALID,-0.007,VALID,21.132,VALID,234.0,VALID,0.0,
2018-05-18, 03:02:07,VALID,914.541,VALID,0.0,VALID,98.892,VALID,-0.009,VALID,21.128,VALID,231.0,VALID,0.0,
2018-05-18, 03:03:07,VALID,914.548,VALID,0.0,VALID,98.897,VALID,-0.001,VALID,21.146,VALID,218.0,VALID,0.0,
2018-05-18, 03:04:07,VALID,914.523,VALID,0.0,VALID,98.901,VALID,-0.002,VALID,21.142,VALID,202.0,VALID,0.0,
2018-05-18, 03:05:07,VALID,914.511,VALID,0.0,VALID,98.891,VALID,0.003,VALID,21.14,VALID,167.0,VALID,0.0,
2018-05-18, 03:06:07,VALID,914.498,VALID,0.0,VALID,98.898,VALID,-0.0,VALID,21.143,VALID,166.0,VALID,0.0,
2018-05-18, 03:07:07,VALID,914.49,VALID,0.0,VALID,98.906,VALID,0.006,VALID,21.154,VALID,166.0,VALID,0.0,
2018-05-18, 03:08:07,VALID,914.496,VALID,0.0,VALID,98.917,VALID,0.018,VALID,21.129,VALID,166.0,VALID,0.0,
2018-05-18, 03:09:07,VALID,914.482,VALID,0.0,VALID,98.913,VALID,0.017,VALID,21.121,VALID,166.0,VALID,0.0,
2018-05-18, 03:10:07,VALID,914.457,VALID,0.0,VALID,98.912,VALID,0.01,VALID,21.127,VALID,166.0,VALID,0.0,
2018-05-18, 03:11:07,VALID,914.428,VALID,0.0,VALID,98.919,VALID,0.02,VALID,21.134,VALID,166.0,VALID,0.0,
2018-05-18, 03:12:07,VALID,914.401,VALID,0.0,VALID,98.91,VALID,-0.001,VALID,21.134,VALID,166.0,VALID,0.0,
2018-05-18, 03:13:07,VALID,914.366,VALID,0.0,VALID,98.917,VALID,0.006,VALID,21.134,VALID,166.0,VALID,0.0,
2018-05-18, 03:14:07,VALID,914.375,VALID,0.0,VALID,98.912,VALID,-0.003,VALID,21.158,VALID,166.0,VALID,0.0,
2018-05-18, 03:15:07,VALID,914.338,VALID,0.0,VALID,98.933,VALID,0.007,VALID,21.185,VALID,166.0,VALID,0.0,
2018-05-18, 03:16:07,VALID,914.342,VALID,0.0,VALID,98.933,VALID,0.013,VALID,21.215,VALID,166.0,VALID,0.0,
2018-05-18, 03:17:07,VALID,914.324,VALID,0.0,VALID,98.94,VALID,-0.0,VALID,21.24,VALID,167.0,VALID,0.0,
2018-05-18, 03:18:07,VALID,914.322,VALID,0.0,VALID,98.938,VALID,0.001,VALID,21.261,VALID,193.0,VALID,0.0,
2018-05-18, 03:19:07,VALID,914.312,VALID,0.0,VALID,98.955,VALID,-0.01,VALID,21.29,VALID,199.0,VALID,0.0,
2018-05-18, 03:20:07,VALID,914.311,VALID,0.0,VALID,98.943,VALID,-0.001,VALID,21.312,VALID,201.0,VALID,0.0,
2018-05-18, 03:21:07,VALID,914.303,VALID,0.0,VALID,98.949,VALID,-0.006,VALID,21.309,VALID,215.0,VALID,0.0,
2018-05-18, 03:22:07,VALID,914.301,VALID,0.0,VALID,98.934,VALID,0.008,VALID,21.287,VALID,222.0,VALID,0.0,
2018-05-18, 03:23:07,VALID,914.303,VALID,0.0,VALID,98.916,VALID,0.003,VALID,21.285,VALID,221.0,VALID,0.0,
2018-05-18, 03:24:07,VALID,914.31,VALID,0.0,VALID,98.942,VALID,0.01,VALID,21.312,VALID,221.0,VALID,0.0,
2018-05-18, 03:25:07,VALID,914.313,VALID,0.0,VALID,98.948,VALID,-0.004,VALID,21.316,VALID,220.0,VALID,0.0,
2018-05-18, 03:26:07,VALID,914.318,VALID,0.0,VALID,98.938,VALID,0.007,VALID,21.313,VALID,220.0,VALID,0.0,
2018-05-18, 03:27:07,VALID,914.322,VALID,0.0,VALID,98.936,VALID,0.007,VALID,21.302,VALID,220.0,VALID,0.0,
2018-05-18, 03:28:07,VALID,914.321,VALID,0.0,VALID,98.922,VALID,-0.011,VALID,21.293,VALID,220.0,VALID,0.0,
2018-05-18, 03:29:07,VALID,914.324,VALID,0.0,VALID,98.945,VALID,-0.009,VALID,21.286,VALID,115.0,VALID,0.0,
2018-05-18, 03:30:07,VALID,914.328,VALID,0.0,VALID,98.905,VALID,0.0,VALID,21.256,VALID,84.0,VALID,0.0,
2018-05-18, 03:31:07,VALID,914.337,VALID,0.0,VALID,98.893,VALID,-0.005,VALID,21.226,VALID,83.0,VALID,0.0,
2018-05-18, 03:32:07,VALID,914.347,VALID,0.0,VALID,98.922,VALID,-0.016,VALID,21.209,VALID,83.0,VALID,0.0,
2018-05-18, 03:33:07,VALID,914.342,VALID,0.0,VALID,98.895,VALID,0.017,VALID,21.196,VALID,83.0,VALID,0.0,
2018-05-18, 03:34:07,VALID,914.333,VALID,0.0,VALID,98.913,VALID,0.03,VALID,21.198,VALID,77.0,VALID,0.0,
2018-05-18, 03:35:07,VALID,914.323,VALID,0.0,VALID,98.93,VALID,0.023,VALID,21.182,VALID,74.0,VALID,0.0,
2018-05-18, 03:36:07,VALID,914.302,VALID,0.0,VALID,98.913,VALID,0.015,VALID,21.166,VALID,74.0,VALID,0.0,
2018-05-18, 03:37:07,VALID,914.278,VALID,0.0,VALID,98.922,VALID,0.015,VALID,21.186,VALID,74.0,VALID,0.0,
2018-05-18, 03:38:07,VALID,914.279,VALID,0.0,VALID,98.966,VALID,0.026,VALID,21.227,VALID,73.0,VALID,0.0,
2018-05-18, 03:39:07,VALID,914.265,VALID,0.0,VALID,98.943,VALID,0.016,VALID,21.222,VALID,66.0,VALID,0.0,
2018-05-18, 03:40:07,VALID,914.253,VALID,0.0,VALID,98.9,VALID,0.043,VALID,21.198,VALID,50.0,VALID,0.0,
2018-05-18, 03:41:07,VALID,914.247,VALID,0.0,VALID,98.907,VALID,0.034,VALID,21.171,VALID,40.0,VALID,0.0,
2018-05-18, 03:42:07,VALID,914.242,VALID,0.0,VALID,98.906,VALID,0.018,VALID,21.154,VALID,40.0,VALID,0.0,